Terug naar catalogus

STARLINK-6289

ActiefCommunicatieVLEO
NORAD 56408·PAYLOAD·🇺🇸 United States

Gelanceerd May 4, 2023 vanaf Cape Canaveral Space Force Station

Loading…

Volgende Passages (komende 24 uur)

TLE

VersSource: CelesTrak SupGP

Epoch: Sep 15, 2026, 02:47 UTC

1 56408C 23061AL  26258.11645833 -.00022545  00000+0 -81670-3 0  2581
2 56408  43.0028 196.9325 0001217 271.4044 268.4217 15.27584944    10

Volg STARLINK-6289 in realtime met AllMySat

Download on the App Store